ONEWEB-0261 (48979 NORAD) Tracking and Keplerian Element Data

This shows tracking and keplerian element data for the satellite.

Feedback or suggestion? Click here.




ElementValue
Catalog48979
NameONEWEB-0261
Epoch Orbit1395
Epoch Day269.25001157
Epoch Year2021
RAAN211.9131
Inclination87.9039
Eccentricity0.00114
Argument of Perigee347.8978
Mean Anonmoly48.2756
Mean Motion13.46281042
Decay Rate1.4E-07
L11 48979U 21060N 21269.25001157 .00000014 00000-0 00000+0 0 9991
L22 48979 87.9039 211.9131 0011400 347.8978 48.2756 13.46281042 13956

Live tracking and technical data element details for ONEWEB-0261 (NORAD 48979). ONEWEB-0261 can be tracked NOW for your location showing map with azimuth and elevation plus other details from your city location.

Track the satellite on the map from your city or location and see movement details for azimuth, elevation, latitude, longitude, range, height, and movement on the map or in text.







IsCatalogInMostPopularTable: catalog: 48979, numindb: 19
Update: records affected: 1



GetName: 48979 ONEWEB-0261

Hit Count: updated at: Sun, 26 Sep 2021 15:29:22 GMT